Time,TemperatureF,DewpointF,PressureIn,WindDirection,WindDirectionDegrees,WindSpeedMPH,WindSpeedGustMPH,Humidity,HourlyPrecipIn,Conditions,Clouds,dailyrainin,SoftwareType,DateUTC
2013-01-05 00:13:00,30.1,24.0,29.90,WNW,282,10.0,-999.0,77,-99.99,,,0.00,weatherlink.com 1.10,2013-01-05 05:13:00,
2013-01-05 00:27:00,30.1,24.0,29.90,WNW,282,1.0,-999.0,77,-99.99,,,0.00,weatherlink.com 1.10,2013-01-05 05:27:00,
2013-01-05 00:42:00,30.3,24.0,29.91,WNW,295,11.0,-999.0,78,-99.99,,,0.00,weatherlink.com 1.10,2013-01-05 05:42:00,
2013-01-05 00:57:00,30.4,24.0,29.91,WNW,288,9.0,-999.0,78,-99.99,,,0.00,weatherlink.com 1.10,2013-01-05 05:57:00,
2013-01-05 01:12:00,30.6,25.0,29.91,WNW,286,10.0,-999.0,78,-99.99,,,0.00,weatherlink.com 1.10,2013-01-05 06:12:00,
2013-01-05 01:27:00,30.7,24.0,29.92,WNW,282,10.0,-999.0,77,-99.99,,,0.00,weatherlink.com 1.10,2013-01-05 06:27:00,
2013-01-05 01:42:00,30.7,25.0,29.92,WNW,283,12.0,-999.0,78,-99.99,,,0.00,weatherlink.com 1.10,2013-01-05 06:42:00,
2013-01-05 01:57:00,30.9,25.0,29.93,WNW,285,17.0,-999.0,77,-99.99,,,0.00,weatherlink.com 1.10,2013-01-05 06:57:00,
2013-01-05 02:12:00,31.0,25.0,29.94,WNW,294,15.0,-999.0,77,-99.99,,,0.00,weatherlink.com 1.10,2013-01-05 07:12:00,
2013-01-05 02:27:00,31.0,25.0,29.95,WNW,290,9.0,-999.0,78,-99.99,,,0.00,weatherlink.com 1.10,2013-01-05 07:27:00,
2013-01-05 02:43:00,31.0,25.0,29.96,West,280,13.0,-999.0,77,-99.99,,,0.00,weatherlink.com 1.10,2013-01-05 07:43:00,
2013-01-05 02:58:00,31.0,25.0,29.96,WNW,290,10.0,-999.0,77,-99.99,,,0.00,weatherlink.com 1.10,2013-01-05 07:58:00,
2013-01-05 03:13:00,31.0,25.0,29.97,WNW,290,15.0,-999.0,77,-99.99,,,0.00,weatherlink.com 1.10,2013-01-05 08:13:00,
2013-01-05 03:28:00,30.9,25.0,29.98,WNW,293,11.0,-999.0,77,-99.99,,,0.00,weatherlink.com 1.10,2013-01-05 08:28:00,
2013-01-05 03:43:00,30.9,24.0,29.98,West,269,3.0,-999.0,76,-99.99,,,0.00,weatherlink.com 1.10,2013-01-05 08:43:00,
2013-01-05 03:58:00,30.9,25.0,29.98,WNW,288,9.0,-999.0,77,-99.99,,,0.00,weatherlink.com 1.10,2013-01-05 08:58:00,
2013-01-05 04:13:00,30.9,25.0,29.99,WNW,295,12.0,-999.0,77,-99.99,,,0.00,weatherlink.com 1.10,2013-01-05 09:13:00,
2013-01-05 04:28:00,30.7,24.0,29.99,WNW,290,3.0,-999.0,77,-99.99,,,0.00,weatherlink.com 1.10,2013-01-05 09:28:00,
2013-01-05 04:43:00,30.6,24.0,30.00,WNW,289,6.0,-999.0,77,-99.99,,,0.00,weatherlink.com 1.10,2013-01-05 09:43:00,
2013-01-05 04:58:00,30.4,24.0,30.00,WNW,289,2.0,-999.0,78,-99.99,,,0.00,weatherlink.com 1.10,2013-01-05 09:58:00,
2013-01-05 05:13:00,30.3,24.0,30.01,WNW,288,4.0,-999.0,78,-99.99,,,0.00,weatherlink.com 1.10,2013-01-05 10:13:00,
2013-01-05 05:28:00,30.3,24.0,30.02,NW,311,7.0,-999.0,78,-99.99,,,0.00,weatherlink.com 1.10,2013-01-05 10:28:00,
2013-01-05 05:43:00,30.3,24.0,30.04,WNW,291,11.0,-999.0,78,-99.99,,,0.00,weatherlink.com 1.10,2013-01-05 10:43:00,
2013-01-05 05:58:00,30.1,25.0,30.05,WNW,291,9.0,-999.0,80,-99.99,,,0.00,weatherlink.com 1.10,2013-01-05 10:58:00,
2013-01-05 06:13:00,30.1,24.0,30.06,WNW,291,11.0,-999.0,78,-99.99,,,0.00,weatherlink.com 1.10,2013-01-05 11:13:00,
2013-01-05 06:28:00,30.3,24.0,30.07,WNW,292,12.0,-999.0,78,-99.99,,,0.00,weatherlink.com 1.10,2013-01-05 11:28:00,
2013-01-05 06:43:00,30.3,25.0,30.07,WNW,295,8.0,-999.0,79,-99.99,,,0.00,weatherlink.com 1.10,2013-01-05 11:43:00,
2013-01-05 06:58:00,30.4,24.0,30.08,WNW,295,7.0,-999.0,78,-99.99,,,0.00,weatherlink.com 1.10,2013-01-05 11:58:00,
2013-01-05 07:13:00,30.4,24.0,30.09,WNW,290,6.0,-999.0,78,-99.99,,,0.00,weatherlink.com 1.10,2013-01-05 12:13:00,
2013-01-05 07:28:00,30.4,24.0,30.09,WNW,294,5.0,-999.0,78,-99.99,,,0.00,weatherlink.com 1.10,2013-01-05 12:28:00,
2013-01-05 07:43:00,30.6,25.0,30.10,WNW,294,12.0,-999.0,79,-99.99,,,0.00,weatherlink.com 1.10,2013-01-05 12:43:00,
2013-01-05 07:58:00,30.6,25.0,30.12,WNW,293,6.0,-999.0,79,-99.99,,,0.00,weatherlink.com 1.10,2013-01-05 12:58:00,
2013-01-05 08:13:00,30.6,25.0,30.13,WNW,298,11.0,-999.0,79,-99.99,,,0.00,weatherlink.com 1.10,2013-01-05 13:13:00,
2013-01-05 08:28:00,31.0,23.0,30.13,NW,315,19.0,-999.0,72,-99.99,,,0.00,weatherlink.com 1.10,2013-01-05 13:28:00,
2013-01-05 08:43:00,30.9,22.0,30.14,NW,320,17.0,-999.0,69,-99.99,,,0.00,weatherlink.com 1.10,2013-01-05 13:43:00,
2013-01-05 08:58:00,30.4,21.0,30.15,NW,307,13.0,-999.0,69,-99.99,,,0.00,weatherlink.com 1.10,2013-01-05 13:58:00,
2013-01-05 09:13:00,30.3,19.0,30.16,NW,325,15.0,-999.0,62,-99.99,,,0.00,weatherlink.com 1.10,2013-01-05 14:13:00,
2013-01-05 09:28:00,29.7,18.0,30.18,NW,321,16.0,-999.0,62,-99.99,,,0.00,weatherlink.com 1.10,2013-01-05 14:28:00,
2013-01-05 09:43:00,29.4,17.0,30.18,NW,312,14.0,-999.0,61,-99.99,,,0.00,weatherlink.com 1.10,2013-01-05 14:43:00,
2013-01-05 09:58:00,29.4,17.0,30.20,WNW,300,11.0,-999.0,61,-99.99,,,0.00,weatherlink.com 1.10,2013-01-05 14:58:00,
2013-01-05 10:13:00,29.5,18.0,30.21,WNW,296,18.0,-999.0,62,-99.99,,,0.00,weatherlink.com 1.10,2013-01-05 15:13:00,
2013-01-05 10:28:00,29.5,17.0,30.21,NW,311,15.0,-999.0,60,-99.99,,,0.00,weatherlink.com 1.10,2013-01-05 15:28:00,
2013-01-05 10:43:00,29.7,17.0,30.21,NW,313,18.0,-999.0,60,-99.99,,,0.00,weatherlink.com 1.10,2013-01-05 15:43:00,
2013-01-05 10:58:00,29.8,18.0,30.21,NW,309,19.0,-999.0,62,-99.99,,,0.00,weatherlink.com 1.10,2013-01-05 15:58:00,
2013-01-05 11:13:00,30.3,19.0,30.21,WNW,302,19.0,-999.0,62,-99.99,,,0.00,weatherlink.com 1.10,2013-01-05 16:13:00,
2013-01-05 11:28:00,30.6,18.0,30.21,NW,306,21.0,-999.0,61,-99.99,,,0.00,weatherlink.com 1.10,2013-01-05 16:28:00,
2013-01-05 11:43:00,30.6,18.0,30.22,NW,308,18.0,-999.0,61,-99.99,,,0.00,weatherlink.com 1.10,2013-01-05 16:43:00,
2013-01-05 11:58:00,30.9,19.0,30.21,NW,316,17.0,-999.0,62,-99.99,,,0.00,weatherlink.com 1.10,2013-01-05 16:58:00,
2013-01-05 12:13:00,31.3,19.0,30.21,NW,311,20.0,-999.0,61,-99.99,,,0.00,weatherlink.com 1.10,2013-01-05 17:13:00,
2013-01-05 12:28:00,31.3,19.0,30.20,WNW,299,7.0,-999.0,61,-99.99,,,0.00,weatherlink.com 1.10,2013-01-05 17:28:00,
2013-01-05 12:43:00,31.3,19.0,30.20,WNW,296,13.0,-999.0,61,-99.99,,,0.00,weatherlink.com 1.10,2013-01-05 17:43:00,
2013-01-05 12:58:00,31.3,20.0,30.19,NW,309,6.0,-999.0,62,-99.99,,,0.00,weatherlink.com 1.10,2013-01-05 17:58:00,
2013-01-05 13:13:00,31.8,19.0,30.18,NW,306,6.0,-999.0,59,-99.99,,,0.00,weatherlink.com 1.10,2013-01-05 18:13:00,
2013-01-05 13:28:00,31.5,20.0,30.18,WNW,301,6.0,-999.0,62,-99.99,,,0.00,weatherlink.com 1.10,2013-01-05 18:28:00,
2013-01-05 13:43:00,31.5,20.0,30.17,NNW,332,14.0,-999.0,62,-99.99,,,0.00,weatherlink.com 1.10,2013-01-05 18:43:00,
2013-01-05 13:58:00,31.3,19.0,30.18,WNW,295,5.0,-999.0,61,-99.99,,,0.00,weatherlink.com 1.10,2013-01-05 18:58:00,
2013-01-05 14:13:00,31.8,19.0,30.18,WNW,290,7.0,-999.0,60,-99.99,,,0.00,weatherlink.com 1.10,2013-01-05 19:13:00,
2013-01-05 14:28:00,32.2,19.0,30.17,WNW,289,5.0,-999.0,59,-99.99,,,0.00,weatherlink.com 1.10,2013-01-05 19:28:00,
2013-01-05 14:43:00,32.1,19.0,30.17,WNW,296,4.0,-999.0,60,-99.99,,,0.00,weatherlink.com 1.10,2013-01-05 19:43:00,
2013-01-05 14:58:00,32.1,19.0,30.18,WNW,292,4.0,-999.0,59,-99.99,,,0.00,weatherlink.com 1.10,2013-01-05 19:58:00,
2013-01-05 15:13:00,31.5,19.0,30.18,WNW,292,2.0,-999.0,60,-99.99,,,0.00,weatherlink.com 1.10,2013-01-05 20:13:00,
2013-01-05 15:28:00,31.0,19.0,30.18,WNW,301,5.0,-999.0,62,-99.99,,,0.00,weatherlink.com 1.10,2013-01-05 20:28:00,
2013-01-05 15:44:00,31.2,19.0,30.17,WNW,301,5.0,-999.0,61,-99.99,,,0.00,weatherlink.com 1.10,2013-01-05 20:44:00,
2013-01-05 15:58:00,31.0,19.0,30.18,WNW,301,5.0,-999.0,62,-99.99,,,0.00,weatherlink.com 1.10,2013-01-05 20:58:00,
2013-01-05 16:14:00,30.9,20.0,30.18,WNW,301,0.0,-999.0,63,-99.99,,,0.00,weatherlink.com 1.10,2013-01-05 21:14:00,
2013-01-05 16:29:00,31.0,19.0,30.18,WNW,301,0.0,-999.0,62,-99.99,,,0.00,weatherlink.com 1.10,2013-01-05 21:29:00,
2013-01-05 16:44:00,31.0,20.0,30.18,WNW,301,2.0,-999.0,63,-99.99,,,0.00,weatherlink.com 1.10,2013-01-05 21:44:00,
2013-01-05 16:59:00,30.7,19.0,30.18,WNW,301,0.0,-999.0,63,-99.99,,,0.00,weatherlink.com 1.10,2013-01-05 21:59:00,
2013-01-05 17:14:00,30.4,20.0,30.18,WNW,301,0.0,-999.0,66,-99.99,,,0.00,weatherlink.com 1.10,2013-01-05 22:14:00,
2013-01-05 17:29:00,29.8,20.0,30.17,WNW,301,0.0,-999.0,66,-99.99,,,0.00,weatherlink.com 1.10,2013-01-05 22:29:00,
2013-01-05 17:44:00,29.3,20.0,30.17,WNW,301,0.0,-999.0,69,-99.99,,,0.00,weatherlink.com 1.10,2013-01-05 22:44:00,
2013-01-05 17:59:00,29.0,21.0,30.16,WNW,301,0.0,-999.0,72,-99.99,,,0.00,weatherlink.com 1.10,2013-01-05 22:59:00,
2013-01-05 18:14:00,29.0,21.0,30.16,WNW,301,0.0,-999.0,71,-99.99,,,0.00,weatherlink.com 1.10,2013-01-05 23:14:00,
2013-01-05 18:29:00,29.1,20.0,30.16,WNW,301,0.0,-999.0,70,-99.99,,,0.00,weatherlink.com 1.10,2013-01-05 23:29:00,
2013-01-05 18:44:00,29.0,20.0,30.16,WNW,301,0.0,-999.0,70,-99.99,,,0.00,weatherlink.com 1.10,2013-01-05 23:44:00,
2013-01-05 18:59:00,29.0,20.0,30.16,WNW,301,0.0,-999.0,70,-99.99,,,0.00,weatherlink.com 1.10,2013-01-05 23:59:00,
2013-01-05 19:14:00,28.7,22.0,30.15,WNW,301,0.0,-999.0,76,-99.99,,,0.00,weatherlink.com 1.10,2013-01-06 00:14:00,
2013-01-05 19:29:00,28.4,21.0,30.15,WNW,301,0.0,-999.0,75,-99.99,,,0.00,weatherlink.com 1.10,2013-01-06 00:29:00,
2013-01-05 19:44:00,28.8,22.0,30.14,WNW,301,0.0,-999.0,74,-99.99,,,0.00,weatherlink.com 1.10,2013-01-06 00:44:00,
2013-01-05 19:59:00,28.8,22.0,30.12,WNW,301,0.0,-999.0,74,-99.99,,,0.00,weatherlink.com 1.10,2013-01-06 00:59:00,
2013-01-05 20:14:00,28.7,21.0,30.14,WNW,301,0.0,-999.0,72,-99.99,,,0.00,weatherlink.com 1.10,2013-01-06 01:14:00,
2013-01-05 20:29:00,28.8,21.0,30.13,WNW,301,0.0,-999.0,72,-99.99,,,0.00,weatherlink.com 1.10,2013-01-06 01:29:00,
2013-01-05 20:44:00,29.0,21.0,30.13,WNW,302,0.0,-999.0,72,-99.99,,,0.00,weatherlink.com 1.10,2013-01-06 01:44:00,
2013-01-05 20:59:00,29.0,21.0,30.12,WNW,302,0.0,-999.0,71,-99.99,,,0.00,weatherlink.com 1.10,2013-01-06 01:59:00,
2013-01-05 21:14:00,28.7,20.0,30.10,WNW,302,0.0,-999.0,71,-99.99,,,0.00,weatherlink.com 1.10,2013-01-06 02:14:00,
2013-01-05 21:29:00,28.2,21.0,30.11,WNW,302,0.0,-999.0,73,-99.99,,,0.00,weatherlink.com 1.10,2013-01-06 02:29:00,
2013-01-05 21:44:00,28.2,21.0,30.11,WNW,302,0.0,-999.0,73,-99.99,,,0.00,weatherlink.com 1.10,2013-01-06 02:44:00,
2013-01-05 21:59:00,28.2,21.0,30.10,WNW,302,0.0,-999.0,73,-99.99,,,0.00,weatherlink.com 1.10,2013-01-06 02:59:00,
2013-01-05 22:14:00,28.4,21.0,30.10,WNW,302,0.0,-999.0,74,-99.99,,,0.00,weatherlink.com 1.10,2013-01-06 03:14:00,
2013-01-05 22:29:00,28.4,21.0,30.10,WNW,302,0.0,-999.0,74,-99.99,,,0.00,weatherlink.com 1.10,2013-01-06 03:29:00,
2013-01-05 22:44:00,27.9,21.0,30.10,WNW,302,0.0,-999.0,74,-99.99,,,0.00,weatherlink.com 1.10,2013-01-06 03:44:00,
2013-01-05 22:59:00,27.9,21.0,30.10,WNW,302,0.0,-999.0,74,-99.99,,,0.00,weatherlink.com 1.10,2013-01-06 03:59:00,
2013-01-05 23:14:00,28.2,21.0,30.09,WNW,302,0.0,-999.0,74,-99.99,,,0.00,weatherlink.com 1.10,2013-01-06 04:14:00,
2013-01-05 23:29:00,28.2,21.0,30.09,WNW,302,0.0,-999.0,75,-99.99,,,0.00,weatherlink.com 1.10,2013-01-06 04:29:00,
2013-01-05 23:44:00,28.2,21.0,30.07,WNW,302,0.0,-999.0,75,-99.99,,,0.00,weatherlink.com 1.10,2013-01-06 04:44:00,
2013-01-05 23:59:00,28.4,21.0,30.07,WNW,302,0.0,-999.0,74,-99.99,,,0.00,weatherlink.com 1.10,2013-01-06 04:59:00,